Regional Weather Roundup
Issued by NWS

Home | Current Version | Previous Version | Text Only | Print | Product List | Glossary On
Versions: 1 2 3 4 5 6 7 8 9 10 11 12 13 14 15 16 17 18 19 20 21 22 23 24 25 26 27 28 29 30 31 32 33 34 35 36 37 38 39 40 41 42 43 44 45 46 47 48 49 50
000
ASUS43 KDTX 280210
RWRMI
MICHIGAN HOURLY REGIONAL WEATHER ROUNDUP
NATIONAL WEATHER SERVICE DETROIT/PONTIAC MI
1000 PM EDT THU AUG 27 2015

NOTE: "FAIR" INDICATES FEW OR NO CLOUDS BELOW 12,000 FEET WITH NO
SIGNIFICANT WEATHER AND/OR OBSTRUCTION TO VISIBILITY.

MIZ047>049-052>055-059>063-066>070-074>076-081>083-280300-
SOUTHEAST LOWER MICHIGAN

CITY           SKY/WX    TMP DP  RH WIND       PRES   REMARKS
ADRIAN         MOCLDY    57  53  86 NE3       30.20R
ALMA           CLEAR     58  56  94 S3        30.18R
ANN ARBOR      CLEAR     54  52  93 CALM      30.19R
BAD AXE        CLEAR     53  51  93 CALM      30.19R
DETROIT CITY   CLEAR     61  53  75 CALM      30.19R
DETROIT        MOCLDY    61  53  75 CALM      30.20R
FLINT          CLEAR     55  51  86 S3        30.19R
GROSSE ILE     CLEAR     61  55  82 CALM      30.18S
HILLSDALE      CLEAR     55  55 100 E3        30.19S FOG
HOWELL         CLEAR     55  52  90 CALM      30.18S

CITY           SKY/WX    TMP DP  RH WIND       PRES   REMARKS
JACKSON        CLEAR     56  52  86 SE3       30.19R
LAMBERTVILLE   PTCLDY    57  54  88 CALM      30.20R
LANSING        CLEAR     60  53  77 CALM      30.19R
LAPEER         NOT AVBL
MASON          CLEAR     53  52  96 CALM      30.19R
MONROE         CLEAR     56  54  92 CALM      30.18R
MT. CLEMENS    CLEAR     60  54  79 CALM      30.18R
PONTIAC        PTCLDY    54  51  90 CALM      30.19R
PORT HOPE        N/A     56  53  90 CALM      30.17R
PORT HURON     CLOUDY    59  57  94 S3        30.20R
TRI CITIES     CLEAR     61  55  81 S7        30.19R
YPSILANTI      CLEAR     58  52  80 CALM      30.20R
$$
MIZ043>046-050>051-056>058-064>065-071>073-077>080-280300-
SOUTHWEST LOWER MICHIGAN

CITY           SKY/WX    TMP DP  RH WIND       PRES   REMARKS
BATTLE CREEK   CLEAR     61  54  77 SE3       30.17F
BENTON HARBOR  PTCLDY    57  55  93 CALM      30.15R
BIG RAPIDS     MOCLDY    61  58  90 W3        30.16R
COLDWATER      CLEAR     56  55  97 CALM      30.18R
HOLLAND        CLEAR     58  55  90 CALM      30.17R
GRAND RAPIDS   PTCLDY    61  56  83 S7        30.16S
KALAMAZOO      CLEAR     61  54  77 SE5       30.17S
MARSHALL       CLEAR     54  51  90 CALM      30.17S
MUSKEGON       PTCLDY    59  55  87 CALM      30.16R
$$
MIZ016>042-280300-
NORTHERN LOWER MICHIGAN

CITY           SKY/WX    TMP DP  RH WIND       PRES   REMARKS
ALPENA         CLEAR     53  51  93 SE3       30.16S
BEAVER ISLAND  CLEAR     58  57  96 CALM      30.13R
BELLAIRE       CLEAR     58  56  94 CALM      30.14R
CADILLAC       CLEAR     56  55  95 CALM      30.16R
CHARLEVOIX     CLEAR     60  58  92 SW5       30.16S
FRANKFORT      CLEAR     60  58  93 CALM      30.14R
GAYLORD        MOCLDY    62  57  83 CALM      30.15R
GRAYLING       CLOUDY    61  58  91 CALM      30.15S
HARBOR SPRINGS PTCLDY    58  56  94 CALM      30.14S
HOUGHTON LAKE  MOCLDY    61  56  83 SE6       30.15S
MANISTEE       CLEAR     57  54  88 CALM      30.15S
OSCODA         CLEAR     55  52  90 CALM      30.16S
PELLSTON       CLEAR     54  53  97 CALM      30.13S
TRAVERSE CITY  CLEAR     61  56  83 CALM      30.13R
$$
MIZ007>008-015-280300-
EASTERN UPPER MICHIGAN

CITY           SKY/WX    TMP DP  RH WIND       PRES   REMARKS
KINROSS        CLEAR     54  54 100 S5        30.12S
MACKINAC ISLAN CLEAR     57  52  84 SE9       30.12S
NEWBERRY       CLEAR     57  56  99 S6        30.10S
S. S. MARIE    CLEAR     57  52  83 SE5       30.11S
$$
MIZ004>006-011>014-085-280300-
CENTRAL UPPER MICHIGAN

CITY           SKY/WX    TMP DP  RH WIND       PRES   REMARKS
MANISTIQUE     CLEAR     61  58  91 S6        30.10S
ESCANABA       CLEAR     63  57  82 S6        30.09S
MENOMINEE      CLEAR     61  54  77 S5        30.09S
SAWYER-GWINN   CLEAR     63  57  82 S9        30.08S
$$
MIZ001>003-009>011-084-280300-
WESTERN UPPER MICHIGAN

CITY           SKY/WX    TMP DP  RH WIND       PRES   REMARKS
IRON MOUNTAIN  CLEAR     62  56  80 S8        30.07S
HOUGHTON       CLEAR     55  49  80 E5        30.04S
COPPER HARBOR    N/A     57  53  86 SW7       30.03S
IRONWOOD       PTCLDY    66  57  72 S3        30.01F
$$

ABBREVIATIONS USED IN REMARKS
   TC - TEMPERATURE IN CELSIUS
  WCI - WIND CHILL INDEX
   HX - HEAT INDEX
  VSB - VISIBILITY




USA.gov is the U.S. government's official web portal to all federal, state and local government web resources and services.